When you browse on this site, cookies collect data to enhance your experience and personalize the content and advertising you see.
Visit our Privacy Policy to learn more. By continuing to use the site, you agree to this use of cookies and data.
  • In Portugal
  • List of Countries
  • For 7 days
  • Water Temperature
  • Weather Map
  • Weather Widgets
  • user-avatar
    Login

    Hourly Weather Malanje

    Today, 15 October, Tuesday

    Time Temperature Precipitation Wind Pressure Humidity
    00:00 +18°C° 0.5 mm 0 mps 665 mmHg 95%
    01:00 +17°C° 0 mm 0 mps 665 mmHg 96%
    02:00 +17°C° 0.1 mm 0 mps 664 mmHg 97%
    03:00 +17°C° 0.1 mm 0 mps 664 mmHg 97%
    04:00 +17°C° 0.1 mm 0 mps 664 mmHg 98%
    05:00 +20°C° 1.2 mm 1 mps 665 mmHg 96%
    06:00 +20°C° 1.2 mm 1 mps 666 mmHg 95%
    07:00 +20°C° 0 mm 1 mps 666 mmHg 95%
    08:00 +21°C° 0 mm 1 mps 666 mmHg 94%
    09:00 +21°C° 0 mm 1 mps 666 mmHg 92%
    10:00 +20°C° 0 mm 2 mps 666 mmHg 91%
    11:00 +23°C° 0 mm 2 mps 666 mmHg 84%
    12:00 +25°C° 0 mm 3 mps 666 mmHg 77%
    13:00 +26°C° 0 mm 3 mps 665 mmHg 70%
    14:00 +27°C° 0.3 mm 2 mps 665 mmHg 69%
    15:00 +27°C° 0.3 mm 1 mps 665 mmHg 68%
    16:00 +25°C° 0.3 mm 0 mps 664 mmHg 68%
    17:00 +24°C° 1.7 mm 0 mps 664 mmHg 75%
    18:00 +24°C° 1.7 mm 1 mps 665 mmHg 82%
    19:00 +22°C° 1.7 mm 1 mps 665 mmHg 89%
    20:00 +22°C° 0.1 mm 1 mps 665 mmHg 91%
    21:00 +21°C° 0.1 mm 1 mps 665 mmHg 93%
    22:00 +19°C° 0.1 mm 0 mps 665 mmHg 95%
    23:00 +19°C° 0 mm 0 mps 665 mmHg 95%

    Tomorrow, 16 October, Wednesday

    Time Temperature Precipitation Wind Pressure Humidity
    00:00 +19°C° 0 mm 0 mps 665 mmHg 94%
    01:00 +19°C° 0 mm 0 mps 664 mmHg 94%
    02:00 +19°C° 0 mm 0 mps 664 mmHg 94%
    03:00 +18°C° 0 mm 0 mps 664 mmHg 94%
    04:00 +20°C° 0 mm 1 mps 663 mmHg 94%
    05:00 +21°C° 0 mm 1 mps 664 mmHg 92%
    06:00 +19°C° 0 mm 0 mps 665 mmHg 90%
    07:00 +20°C° 0 mm 0 mps 665 mmHg 89%
    08:00 +21°C° 0 mm 0 mps 665 mmHg 84%
    09:00 +22°C° 0 mm 0 mps 665 mmHg 79%
    10:00 +24°C° 0 mm 0 mps 665 mmHg 74%
    11:00 +25°C° 0.1 mm 0 mps 665 mmHg 69%
    12:00 +26°C° 0.1 mm 0 mps 665 mmHg 64%
    13:00 +30°C° 0.1 mm 1 mps 665 mmHg 59%
    14:00 +30°C° 0.3 mm 1 mps 664 mmHg 59%
    15:00 +29°C° 0.3 mm 1 mps 664 mmHg 59%
    16:00 +29°C° 0.3 mm 1 mps 663 mmHg 59%
    17:00 +26°C° 2.4 mm 2 mps 663 mmHg 69%
    18:00 +24°C° 2.4 mm 3 mps 664 mmHg 79%
    19:00 +20°C° 2.4 mm 4 mps 664 mmHg 88%
    20:00 +20°C° 0.4 mm 3 mps 664 mmHg 88%
    21:00 +20°C° 0.4 mm 2 mps 664 mmHg 88%
    22:00 +19°C° 0.4 mm 0 mps 665 mmHg 88%
    23:00 +21°C° 0.6 mm 1 mps 665 mmHg 89%

    Day after tomorrow, 17 October, Thursday

    Time Temperature Precipitation Wind Pressure Humidity
    00:00 +20°C° 0.6 mm 1 mps 664 mmHg 91%
    01:00 +20°C° 0.6 mm 1 mps 664 mmHg 92%
    02:00 +20°C° 0 mm 1 mps 664 mmHg 92%
    03:00 +20°C° 0 mm 1 mps 664 mmHg 93%
    04:00 +20°C° 0 mm 1 mps 664 mmHg 93%
    05:00 +20°C° 0 mm 1 mps 664 mmHg 93%
    06:00 +21°C° 0 mm 1 mps 665 mmHg 92%
    07:00 +21°C° 0 mm 1 mps 665 mmHg 92%
    08:00 +23°C° 0 mm 1 mps 666 mmHg 87%
    09:00 +24°C° 0 mm 1 mps 666 mmHg 82%
    10:00 +25°C° 0 mm 2 mps 666 mmHg 77%
    11:00 +26°C° 0.1 mm 1 mps 666 mmHg 74%
    12:00 +27°C° 0.1 mm 1 mps 665 mmHg 71%
    13:00 +27°C° 0.1 mm 1 mps 664 mmHg 69%
    14:00 +27°C° 0.5 mm 1 mps 664 mmHg 71%
    15:00 +27°C° 0.5 mm 1 mps 664 mmHg 73%
    16:00 +26°C° 0.5 mm 2 mps 663 mmHg 74%
    17:00 +25°C° 0.8 mm 2 mps 664 mmHg 80%
    18:00 +23°C° 0.8 mm 2 mps 664 mmHg 86%
    19:00 +21°C° 0.8 mm 2 mps 664 mmHg 92%
    20:00 +21°C° 0.3 mm 2 mps 664 mmHg 93%
    21:00 +20°C° 0.3 mm 3 mps 665 mmHg 95%
    22:00 +20°C° 0.3 mm 3 mps 665 mmHg 96%
    23:00 +20°C° 0.1 mm 3 mps 665 mmHg 96%

    18 October, Friday

    Time Temperature Precipitation Wind Pressure Humidity
    00:00 +20°C° 0.1 mm 3 mps 665 mmHg 96%
    01:00 +20°C° 0.1 mm 3 mps 664 mmHg 96%
    02:00 +20°C° 0 mm 3 mps 664 mmHg 96%
    03:00 +20°C° 0 mm 3 mps 664 mmHg 96%
    04:00 +20°C° 0 mm 2 mps 664 mmHg 95%
    05:00 +20°C° 0 mm 2 mps 664 mmHg 94%
    06:00 +20°C° 0 mm 3 mps 665 mmHg 94%
    07:00 +20°C° 0 mm 3 mps 665 mmHg 93%
    08:00 +22°C° 0 mm 3 mps 665 mmHg 87%
    09:00 +24°C° 0 mm 2 mps 666 mmHg 80%
    10:00 +26°C° 0 mm 2 mps 666 mmHg 74%
    11:00 +27°C° 0.1 mm 2 mps 665 mmHg 69%
    12:00 +28°C° 0.1 mm 2 mps 665 mmHg 65%
    13:00 +29°C° 0.1 mm 2 mps 664 mmHg 60%
    14:00 +28°C° 0.4 mm 2 mps 664 mmHg 63%
    15:00 +28°C° 0.4 mm 2 mps 663 mmHg 65%
    16:00 +27°C° 0.4 mm 2 mps 663 mmHg 68%
    17:00 +25°C° 0.2 mm 2 mps 663 mmHg 75%
    18:00 +24°C° 0.2 mm 3 mps 663 mmHg 82%
    19:00 +21°C° 0.2 mm 3 mps 663 mmHg 89%
    20:00 +21°C° 0 mm 3 mps 664 mmHg 91%
    21:00 +20°C° 0 mm 3 mps 664 mmHg 92%
    22:00 +20°C° 0 mm 3 mps 664 mmHg 93%
    23:00 +20°C° 0 mm 3 mps 664 mmHg 92%

    19 October, Saturday

    Time Temperature Precipitation Wind Pressure Humidity
    00:00 +20°C° 0 mm 3 mps 664 mmHg 92%
    01:00 +20°C° 0 mm 3 mps 664 mmHg 91%
    02:00 +19°C° 0 mm 3 mps 664 mmHg 92%
    03:00 +19°C° 0 mm 2 mps 664 mmHg 93%
    04:00 +19°C° 0 mm 2 mps 663 mmHg 93%
    05:00 +19°C° 0 mm 2 mps 664 mmHg 92%
    06:00 +19°C° 0 mm 3 mps 664 mmHg 91%
    07:00 +19°C° 0 mm 3 mps 665 mmHg 89%
    08:00 +21°C° 0 mm 2 mps 665 mmHg 81%
    09:00 +24°C° 0 mm 2 mps 665 mmHg 73%
    10:00 +26°C° 0 mm 2 mps 666 mmHg 65%
    11:00 +27°C° 0 mm 2 mps 665 mmHg 59%
    12:00 +29°C° 0 mm 2 mps 665 mmHg 54%
    13:00 +30°C° 0 mm 2 mps 665 mmHg 49%
    14:00 +30°C° 0 mm 1 mps 664 mmHg 50%
    15:00 +30°C° 0 mm 1 mps 663 mmHg 51%
    16:00 +29°C° 0 mm 1 mps 663 mmHg 53%
    17:00 +27°C° 0 mm 1 mps 663 mmHg 61%
    18:00 +25°C° 0 mm 2 mps 663 mmHg 69%
    19:00 +23°C° 0 mm 2 mps 663 mmHg 78%
    20:00 +21°C° 0 mm 2 mps 663 mmHg 79%
    21:00 +21°C° 0 mm 2 mps 664 mmHg 80%
    22:00 +21°C° 0 mm 1 mps 664 mmHg 81%
    23:00 +20°C° 0 mm 2 mps 664 mmHg 84%

    20 October, Sunday

    Time Temperature Precipitation Wind Pressure Humidity
    00:00 +19°C° 0 mm 2 mps 664 mmHg 87%
    01:00 +19°C° 0 mm 2 mps 664 mmHg 89%
    02:00 +19°C° 0.1 mm 2 mps 664 mmHg 91%
    03:00 +18°C° 0.1 mm 2 mps 664 mmHg 94%
    04:00 +19°C° 0.1 mm 1 mps 664 mmHg 96%
    05:00 +19°C° 0 mm 1 mps 664 mmHg 94%
    06:00 +20°C° 0 mm 1 mps 665 mmHg 91%
    07:00 +20°C° 0 mm 1 mps 665 mmHg 89%
    08:00 +23°C° 0 mm 1 mps 666 mmHg 78%
    09:00 +26°C° 0 mm 1 mps 666 mmHg 68%
    10:00 +29°C° 0 mm 1 mps 667 mmHg 58%
    11:00 +30°C° 0 mm 1 mps 666 mmHg 56%
    12:00 +30°C° 0 mm 1 mps 666 mmHg 54%
    13:00 +30°C° 0 mm 2 mps 665 mmHg 51%
    14:00 +30°C° 0.2 mm 2 mps 664 mmHg 55%
    15:00 +29°C° 0.2 mm 2 mps 664 mmHg 58%
    16:00 +28°C° 0.2 mm 2 mps 663 mmHg 61%
    17:00 +27°C° 0.2 mm 1 mps 663 mmHg 67%
    18:00 +25°C° 0.2 mm 1 mps 663 mmHg 74%
    19:00 +23°C° 0.2 mm 1 mps 664 mmHg 81%
    20:00 +22°C° 0.4 mm 1 mps 664 mmHg 83%
    21:00 +22°C° 0.4 mm 1 mps 665 mmHg 86%
    22:00 +21°C° 0.4 mm 1 mps 665 mmHg 89%
    23:00 +21°C° 0.2 mm 1 mps 665 mmHg 91%
    Show more